Showing default

IRNSS 1I, 43286

Orbit data source: Space-Track

IRNSS 1I, 43286 is a payload satellite owned by ISRO (IN) in GEO that was launched on Wed, 11 Apr 2018 UTC via a PSLV-XL launch vehicle from the Sirharikota (SRI). Payload-class satellites include a variety of spacecraft equipped with specific instruments for various scientific and technological missions. These include communications satellites like Starlink; space stations such as the ISS; scientific satellites like the Hubble; Earth observation satellites from companies like Planet Labs, Umbra, and HawkEye 360; GPS; miniature CubeSats for education and research; and military/defense satellites.

Not visible in the next 10 days
Identifier
43286, 2018-035A
Orbit
GEO
Country
Flag of ININ / IND
Related business
Manufacturer
ISRO SAC/Banga
Mission
Operational Civil Navigation
Bus & Motor
I1K, ISRO LAM
Mass
1,425 kg wet, 598 kg dry
Launch date (UTC)
2018-04-11 (8 years ago)
Launch vehicle
PSLV-XL
Launch site
Sirharikota (SRI)
Object type
Payload
Rocket body
Debris
Shape & HBR
Box + 2 Pan, 5.0 m
Radar Cross Section
6.961 m², Large (>1 m²)

Expand to show TLE details & history
Last TLE update: 1 week ago

TLE from 1 week ago
0 IRNSS 1I
1 43286U 18035A   26030.71801311  .00000060  00000-0  00000-0 0  9999
2 43286  29.2640  76.3296 0021067 183.9259 183.2889  1.00275723 28707
Epoch: 2026-01-30T17:13Z
TLE epoch observation values (Epoch: 2026-01-30T17:13:56.332Z)
Latitude
3.4897°
Longitude
54.19092°
Altitude
35,873.461 km
Speed
3.068 km/s
True Right ascension
05h 30m 30s
True Declination
3° 29' 10"
Sunlit
Object was in daylight at epoch
Visualization orbit readout
Latitude
Unknown
Longitude
Unknown
Altitude
Unknown
Speed
Unknown
Apparent Right ascension
Unknown
Apparent Declination
Unknown
Sunlit
N/A
Visualization observer readout
Local Sidereal Time
05:42:43
Azimuth
Unknown
Elevation
Unknown
Doppler factor
Unknown
Orbital elements
Apogee altitude
35,875.015 km
Perigee altitude
35,697.359 km
Semi-major axis
42,164.324 km
Eccentricity
0.00211
Inclination
29.264°
RAAN
76.3296°
Arg. of periapsis
183.9259°
True anomaly
183.27509°
Mean anomaly
183.2889°
Eccentric anomaly
183.28199°
Mean motion
0.25068 °/min
Orbital period
1,436.07 mins
BSTAR
0
Loading maneuver chart data...
Computing Atmospheric mass density...
Loading historical data...
Loading historical data...
Loading historical data...
Loading historical data...
Loading historical data...
Loading historical data...
Loading historical data...
Other satellites on launch #35 in the year 2018 (2018-04-11 UTC)

Documentation

Showing up to 5 results
|